Location: St Andrew
(49.4460°N, 2.5750°W)
Time: 20:54:54
(UTC+01:00)

Daily predictions for brighter satellites

Satellite Brightness Start Highest point End
(mag) Time Altitude Azimuth Time Altitude Azimuth Time Altitude Azimuth
Cosmos 2237 4.4 21:52:05 10° NNW 21:57:50 75° WSW 22:03:32 10° SSE
Cosmos 1455 3.9 21:57:46 10° NNE 22:00:41 21° ENE 22:03:37 10° ESE
Cosmos 1980 4.3 21:56:06 10° NNW 22:01:36 49° NE 22:07:04 10° SE
Cosmos 1805 Rocket 3.7 21:57:25 10° S 22:01:47 59° E 22:06:10 10° NNE
Cosmos 1939 Rocket 4.2 22:00:05 10° SSW 22:03:44 37° W 22:07:23 10° NNW
Cosmos 1937 Rocket 4.3 22:04:39 10° SSE 22:09:14 32° ESE 22:13:48 10° NE
SL-08 RB Rocket 3.9 22:06:58 10° SSE 22:11:22 58° ENE 22:15:49 10° N
Cosmos 2219 3.2 22:06:28 10° SSW 22:12:12 75° ESE 22:17:58 10° NNE
ERBS 4.4 22:11:58 10° SSE 22:13:17 12° SE 22:14:37 10° ESE
Cosmos 2237 Rocket 2.6 22:08:23 10° NNW 22:14:00 55° NE 22:19:36 10° SE
Cosmos 2298 Rocket 4.2 22:09:24 10° S 22:14:34 55° ESE 22:19:46 10° NNE
Cosmos 1726 2.2 22:11:27 10° N 22:15:16 87° E 22:19:03 10° S
Cosmos 2333 4.4 22:09:45 10° NNW 22:15:28 73° WSW 22:21:12 10° SSE
Cosmos 1707 Rocket 3.7 22:11:53 10° NNW 22:16:15 77° W 22:20:37 10° S
H-2A R/B 3.9 22:14:32 10° SSW 22:18:31 30° W 22:22:30 10° NW
CZ-4 R/B 4.3 22:13:50 10° NNE 22:18:37 46° E 22:23:16 10° S
NOSS 0 Rocket 4.0 22:12:59 10° NNW 22:19:11 78° ENE 22:25:21 10° SE
USA 234 4.2 22:13:22 10° ENE 22:19:40 52° NNW 22:25:58 10° W
Cosmos 1745 Rocket 4.4 22:14:37 10° SSE 22:20:27 45° E 22:26:16 10° NNE
Cosmos 2360 Rocket 3.9 22:19:44 10° NW 22:24:23 27° WSW 22:29:01 10° SSW
Cosmos 1666 Rocket 3.6 22:20:04 10° S 22:24:27 75° E 22:28:55 10° NNE
Cosmos 1869 4.4 22:21:02 10° N 22:24:40 31° ENE 22:28:05 11° SE
USA 229 DEB 4.4 22:19:26 10° WSW 22:26:20 63° NW 22:33:21 10° NE
USA 229 4.4 22:19:32 10° WSW 22:26:26 64° NW 22:33:28 10° NE
CZ-4B R/B 3.6 22:23:12 10° NNE 22:28:31 76° ESE 22:33:43 10° S
NOAA 11 4.3 22:27:45 10° SSE 22:33:13 82° WSW 22:38:44 10° NNW
Meteor 1-4 Rocket 2.7 22:30:30 10° NNW 22:34:18 77° W 22:37:58 10° S
CZ-4C R/B 3.0 22:33:59 12° SSE 22:37:10 76° ENE 22:40:40 10° N
Cosmos 1470 Rocket 4.0 22:34:06 10° SSE 22:38:07 43° E 22:42:13 10° NNE
Cosmos 1271 Rocket 2.9 22:35:11 10° NNW 22:39:01 74° W 22:42:51 10° S
Cosmos 1933 Rocket 4.1 22:35:08 10° SSE 22:39:16 44° E 22:43:31 10° NNE
H-2A R/B 2.3 22:35:03 11° SSE 22:40:07 68° ENE 22:45:34 10° N
Tiangong 1 2.6 22:39:25 10° SSW 22:41:38 18° SSE 22:42:37 16° SE
NOSS 3-1 (A) 3.5 22:39:35 10° SSW 22:45:30 68° SE 22:52:09 10° NE
Cosmos 1703 3.2 22:46:33 10° S 22:50:27 81° E 22:54:22 10° NNE
CZ-4C R/B 4.1 22:44:35 10° NW 22:50:30 34° NNE 22:57:06 10° E
SL-14 R/B 3.9 22:47:11 10° SSW 22:51:06 58° WNW 22:55:06 10° N
Iridium 2 3.7 22:48:08 11° S 22:51:52 78° E 22:55:44 10° N
SeaSat 1 3.9 22:47:53 10° ESE 22:52:09 30° NE 22:56:25 10° NNW
SPOT 1/Viking Rocket 4.4 22:47:47 10° S 22:52:43 46° W 22:57:42 10° NNW
Cosmos 1898 Rocket 3.5 22:48:09 10° SSW 22:53:21 86° WNW 22:58:38 10° NNE
Cosmos 2227 Rocket 2.5 22:51:25 10° S 22:56:49 49° ESE 23:02:16 10° NE
COSMOS 2455 3.0 22:53:29 10° NNW 22:59:32 70° NE 23:04:39 15° SE
Cosmos 1626 2.3 22:57:22 15° S 23:00:15 54° E 23:03:57 10° NNE
Cosmos 2150 Rocket 4.4 22:57:42 10° SSW 23:03:09 73° WNW 23:08:39 10° NNE
BREEZE-M TANK 4.4 22:45:21 10° WSW 23:04:51 50° S 23:09:19 10° E
Lacrosse 4 Rocket 1.9 23:01:44 10° NNW 23:06:06 60° NE 23:09:30 17° SE
ATLAS 2AS CENTAUR R/B 3.3 23:00:55 10° S 23:08:05 48° ESE 23:15:44 10° NE
SL-16 R/B 2.4 23:02:24 10° NNW 23:08:05 65° ENE 23:12:35 16° SE
Cosmos 2333 Rocket 2.6 23:03:03 10° NW 23:08:42 58° WSW 23:13:22 15° S
Cosmos 1862 Rocket 3.8 23:10:49 10° NNW 23:15:09 67° W 23:18:32 16° S
Cosmos 389 Rocket 3.8 23:13:50 10° N 23:17:00 28° ENE 23:18:56 18° ESE
ATLAS 3B R/B 2.7 23:11:04 10° NW 23:18:14 88° SW 23:23:34 17° SE
Sich 1 4.5 23:14:35 10° SW 23:18:42 37° WNW 23:22:48 10° N
CARTOSAT-1 4.0 23:16:44 15° S 23:20:08 57° W 23:24:24 10° NNW
BREEZE-M DEB (TANK) 2.9 23:18:23 10° W 23:20:19 31° SSW 23:21:13 25° SSE
Cosmos 2297 Rocket 2.3 23:18:37 12° S 23:23:41 55° ESE 23:29:12 10° NE
CZ-4B R/B 3.9 23:22:31 10° E 23:24:13 13° ENE 23:25:53 10° NNE
Cosmos 2219 Rocket 3.3 23:20:04 10° NW 23:25:02 34° WSW 23:29:33 12° SSW
DMSP B5D2-2 4.0 23:21:22 10° NNE 23:26:38 85° ESE 23:31:23 13° SSW
Cosmos 1933 3.4 23:23:02 10° N 23:27:06 73° E 23:29:33 23° SSE
USA 238 DEB 4.1 23:22:41 10° NW 23:29:43 65° NE 23:36:07 13° ESE
USA 238 4.1 23:22:47 10° NW 23:29:48 65° NE 23:36:14 13° ESE
NOSS 3-1 (C) 4.1 23:25:51 10° WSW 23:31:51 61° NW 23:38:40 10° NE
Terra 2.5 23:30:02 15° S 23:33:45 47° W 23:38:22 10° NNW
SAR-Lupe-2 4.4 23:32:17 18° SSW 23:34:34 42° W 23:38:01 10° NNW
Cosmos 1455 3.4 23:33:03 10° NNW 23:36:33 35° W 23:39:20 14° SSW
Spot 4 4.4 23:37:04 17° S 23:40:35 52° W 23:45:22 10° NNW
H-2A R/B 4.3 23:38:12 10° NE 23:41:10 18° E 23:42:34 16° ESE
Cosmos 1241 Rocket 4.4 23:35:16 10° SW 23:41:28 88° SE 23:47:48 10° NE
Cosmos 1603 4.3 23:36:29 10° NNW 23:42:01 50° NE 23:46:24 16° SE
Cosmos 1869 Rocket 3.7 23:45:02 25° SSE 23:47:32 59° E 23:51:57 10° NNE
Meteor 1-26 Rocket 4.2 23:43:38 10° N 23:49:16 78° ENE 23:52:56 23° SSE
ERBS 2.2 23:46:05 10° SW 23:49:34 75° SE 23:53:03 10° ENE
Aureole 2 Rocket 2.7 23:51:17 10° NNW 23:54:20 51° ENE 23:55:40 30° SE
